SPAINSAT

Last updated on Sun Nov 16 2025 00:03:40 GMT+0000 (Coordinated Universal Time)

1 28945U 06007A 25318.93227414 -.00000211 00000+0 00000+0 0 9995 2 28945 0.0139 196.8056 0005618 30.6552 132.5140 1.00272106 72070
UTC large
Height (km)
Speed (km/s)
/
Latitude / Longitude
Inclination (degrees)
Orbital Period (minutes)
Azimuth
Elevation
Range (km)
Doppler Factor

Next 0 passes for location: London (51.5072 / 0.1276)

Sorry there are no passes over London.